Terminal Aerodrome Forecast
Issued by NWS Northern Indiana

Home | Current Version | Previous Version | Graphics & Text | Print | Product List | Glossary On
Versions: 1 2 3 4 5 6 7 8 9 10 11 12 13 14 15 16 17 18 19 20
000
FTUS43 KIWX 171500 AAA
TAFFWA
TAF AMD
KFWA 171515Z 1715/1812 27014G22KT P6SM OVC021
      TEMPO 1715/1717 5SM -SN BKN015
     FM180000 27007KT P6SM SCT025 BKN035=

USA.gov is the U.S. government's official web portal to all federal, state and local government web resources and services.